Location: Shenandoah County Park
(38.9356°N, 78.4524°W)
Time: 06:44:02
(UTC-04:00)

Vanguard 1 Rocket - Pass Details

Date: 16 February 2023
Orbit: 652 x 4223 km, 34.3° (Epoch: 26 March)

Event Time Altitude Azimuth Distance (km) Brightness Sun altitude
Rises 11:34:23 0° 265° (W) 3,571 10.4 37.3°
Reaches altitude 10° 11:36:27 10° 262° (W) 2,852 10.0 37.4°
Maximum altitude 11:43:18 66° 181° (S) 1,645 10.0 37.8°
Drops below altitude 10° 11:56:51 10° 103° (ESE) 5,366 11.7 38.3°
Sets 12:02:19 0° 102° (ESE) 6,954 12.1 38.5°
